DW1183 Weather Reports


time (UTC)temp
C
wind
direction
speed
KPH
gust
KPH
rain 1hr
cm
rain 24hr
cm
rain mn
cm
humidity
%
barometer
mb
20260831014529 30 167 3.2 9.7 0.00 0.00 0.00 80 1014.8
20260831013029 30 171 4.8 11.3 0.00 0.00 0.00 78 1014.9
20260831011530 30 142 6.4 16.1 0.00 0.00 0.00 77 1014.7
20260831010048 30 173 6.4 12.9 0.00 0.00 0.00 76 1014.7
20260831004528 31 171 6.4 12.9 0.00 0.00 0.00 74 1014.8
20260831003032 31 172 4.8 11.3 0.00 0.00 0.00 73 1014.7
20260831001527 31 155 4.8 12.9 0.00 0.00 0.00 71 1014.7
20260831000027 32 191 3.2 11.3 0.00 0.00 0.00 66 1014.8
20260830234527 32 156 4.8 12.9 0.00 0.00 0.00 67 1014.7
20260830233035 32 180 4.8 14.5 0.00 0.00 0.00 68 1014.6
20260830231526 32 167 8.0 17.7 0.00 0.00 0.00 67 1014.6
20260830230025 33 136 6.4 14.5 0.00 0.00 0.00 66 1014.6
20260830224524 33 135 6.4 16.1 0.00 0.00 0.00 65 1014.7
20260830223023 33 163 6.4 14.5 0.00 0.00 0.00 65 1014.6
20260830221522 34 141 3.2 11.3 0.00 0.00 0.00 66 1014.6
20260830220022 34 100 3.2 14.5 0.00 0.00 0.00 66 1014.6
20260830214522 34 143 3.2 11.3 0.00 0.00 0.00 66 1014.6
20260830213025 33 149 8.0 17.7 0.00 0.00 0.00 67 1014.7
20260830211518 34 187 3.2 12.9 0.00 0.00 0.00 68 1014.8
20260830210014 34 145 4.8 11.3 0.00 0.00 0.00 68 1015.0
20260830204517 34 34 3.2 12.9 0.00 0.00 0.00 68 1015.2
20260830203012 35 196 1.6 6.4 0.00 0.00 0.00 67 1015.3
20260830201502 34 161 3.2 9.7 0.00 0.00 0.00 67 1015.6
20260830200058 35 323 1.6 8.0 0.00 0.00 0.00 65 1015.7
20260830194553 34 135 1.6 8.0 0.00 0.00 0.00 67 1016.0
20260830193050 34 309 3.2 12.9 0.00 0.00 0.00 70 1016.1
20260830191544 34 335 3.2 8.0 0.00 0.00 0.00 69 1016.2
20260830190040 33 205 1.6 9.7 0.00 0.00 0.00 71 1016.6
20260830184540 33 288 3.2 8.0 0.00 0.00 0.00 71 1016.8
20260830183031 33 150 3.2 9.7 0.00 0.00 0.00 71 1017.1
20260830181527 33 154 1.6 9.7 0.00 0.00 0.00 71 1017.1
20260830180022 33 111 3.2 6.4 0.00 0.00 0.00 71 1017.5
20260830174519 32 150 0.0 4.8 0.00 0.00 0.00 71 1017.6
20260830173014 33 146 4.8 16.1 0.00 0.00 0.00 67 1017.8
20260830171511 32 153 0.0 4.8 0.00 0.00 0.00 68 1017.9
20260830170007 32 234 4.8 11.3 0.00 0.00 0.00 69 1017.8
20260830164504 32 240 1.6 6.4 0.00 0.00 0.00 71 1017.9
20260830163002 32 239 1.6 4.8 0.00 0.00 0.00 73 1018.0
20260830161619 31 239 3.2 6.4 0.00 0.00 0.00 75 1018.1
20260830160054 31 240 1.6 8.0 0.00 0.00 0.00 76 1018.1
20260830154550 30 223 1.6 9.7 0.00 0.00 0.00 77 1018.0
20260830153048 30 274 3.2 4.8 0.00 0.00 0.00 78 1018.1
20260830151543 30 183 1.6 3.2 0.00 0.00 0.00 80 1018.2
20260830150108 29 183 1.6 6.4 0.00 0.00 0.00 82 1018.2
20260830144535 28 180 1.6 4.8 0.00 0.00 0.00 84 1018.2
20260830143037 28 179 0.0 4.8 0.00 0.00 0.00 86 1018.2
20260830141527 27 176 0.0 6.4 0.00 0.00 0.00 89 1018.3
20260830140021 27 176 0.0 1.6 0.00 0.00 0.00 91 1018.0
20260830134532 27 176 0.0 3.2 0.00 0.00 0.00 91 1018.0
20260830133016 26 176 1.6 3.2 0.00 0.00 0.00 92 1017.8
20260830131516 26 176 0.0 1.6 0.00 0.00 0.00 92 1017.6
20260830130012 26 176 0.0 1.6 0.00 0.00 0.00 92 1017.4
20260830124512 26 176 0.0 3.2 0.00 0.00 0.00 92 1017.4
20260830123008 26 176 0.0 1.6 0.00 0.00 0.00 92 1017.2
20260830121505 26 176 0.0 1.6 0.00 0.00 0.00 92 1017.1
20260830120001 26 176 0.0 1.6 0.00 0.00 0.00 91 1017.1
20260830114612 26 176 0.0 1.6 0.00 0.00 0.00 91 1017.1
20260830113100 26 176 0.0 1.6 0.00 0.00 0.00 91 1017.1
20260830111554 26 176 0.0 1.6 0.00 0.00 0.00 91 1017.0
20260830110053 26 176 0.0 0.0 0.00 0.00 0.00 91 1016.9
20260830104552 26 176 0.0 1.6 0.00 0.00 0.00 91 1016.8
20260830103052 26 176 0.0 0.0 0.00 0.00 0.00 91 1016.8
20260830101552 27 176 0.0 0.0 0.00 0.00 0.00 90 1016.8
20260830100050 27 176 0.0 1.6 0.00 0.00 0.00 90 1016.7
20260830094549 27 176 0.0 0.0 0.00 0.00 0.00 90 1016.6
20260830093052 27 176 0.0 0.0 0.00 0.00 0.00 90 1016.6
20260830091550 27 176 0.0 1.6 0.00 0.00 0.00 89 1016.7
20260830090058 27 176 0.0 3.2 0.00 0.00 0.00 89 1016.5
20260830084553 27 176 0.0 1.6 0.00 0.00 0.00 90 1016.6
20260830083047 27 176 0.0 1.6 0.00 0.00 0.00 89 1016.6
20260830081545 27 176 1.6 4.8 0.00 0.00 0.00 89 1016.6
20260830080044 27 176 0.0 4.8 0.00 0.00 0.00 89 1016.8
20260830074551 27 176 1.6 6.4 0.00 0.00 0.00 89 1016.7
20260830073042 27 176 1.6 3.2 0.00 0.00 0.00 89 1016.8
20260830071542 27 176 0.0 3.2 0.00 0.00 0.00 89 1016.9
20260830070040 27 176 1.6 6.4 0.00 0.00 0.00 89 1016.8
20260830064540 27 176 3.2 6.4 0.00 0.00 0.00 89 1016.7
20260830063039 27 176 1.6 6.4 0.00 0.00 0.00 89 1016.8
20260830061537 27 176 3.2 6.4 0.00 0.00 0.00 88 1016.8
20260830060037 27 176 1.6 8.0 0.00 0.00 0.00 88 1016.7
20260830054536 27 176 3.2 6.4 0.00 0.00 0.00 88 1016.8
20260830053032 28 177 3.2 6.4 0.00 0.00 0.00 88 1016.8
20260830051532 28 177 4.8 11.3 0.00 0.00 0.00 87 1016.7
20260830050030 28 178 3.2 9.7 0.00 0.00 0.00 86 1016.8
20260830044533 28 178 4.8 8.0 0.00 0.00 0.00 86 1016.9
20260830043028 28 180 3.2 9.7 0.00 0.00 0.00 86 1016.9
20260830041536 28 180 4.8 9.7 0.00 0.00 0.00 87 1016.9
20260830040027 28 184 4.8 11.3 0.00 0.00 0.00 87 1016.9
20260830034537 28 171 4.8 8.0 0.00 0.00 0.00 87 1016.8
20260830033026 28 171 4.8 9.7 0.00 0.00 0.00 87 1016.9
20260830031525 28 167 3.2 9.7 0.00 0.00 0.00 87 1016.7
20260830030025 28 167 4.8 11.3 0.00 0.00 0.00 86 1016.6
20260830024525 28 171 3.2 8.0 0.00 0.00 0.00 86 1016.6
20260830023025 28 173 1.6 8.0 0.00 0.00 0.00 85 1016.4
20260830021531 29 175 1.6 9.7 0.00 0.00 0.00 85 1016.2
20260830020022 29 175 3.2 9.7 0.00 0.00 0.00 83 1016.0